Weather History for Asheville, NC

Change the Weather History Date:

Saturday, December 2, 2006

  Actual Average Record
Temperature  
Mean Temperature 43 °F 42 °F  
Max Temperature 56 °F 53 °F 71 °F (1970)
Min Temperature 30 °F 32 °F 10 °F (1876)
Degree Days  
Heating Degree Days 22 23  
Month to date heating degree days 35 45  
Since 1 July heating degree days 966 912  
Cooling Degree Days 0 0  
Month to date cooling degree days 0 0  
Year to date cooling degree days 845 863  
Moisture  
Dew Point 22 °F    
Average Humidity 46    
Maximum Humidity 72    
Minimum Humidity 19    
Precipitation  
Precipitation 0.00 in 0.13 in 2.32 in (1905)
Month to date precipitation 0.20 0.26  
Year to date precipitation 43.85 42.24  
Snow  
Snow 0.00 in 0.00 in 1.00 in (1918)
Month to date snowfall 0.0 0.0  
Since 1 July snowfall T 0.1  
Snow Depth -    
Sea Level Pressure  
Sea Level Pressure 30.29 in    
Wind  
Wind Speed 9 mph (NNW)    
Max Wind Speed 21 mph    
Max Gust Speed 26 mph    
Visibility 10 miles    
Events      
T = Trace of Precipitation, MM = Missing Value Source: NWS Daily Summary

Daily Weather History Graph

Daily Weather History Graph

Search for Another Location

Airport:

Trip Planner

Search our weather history database for the weather conditions in past years. The results will help you decide how hot, cold, wet, or windy it might be!

Date:

Astronomy

Dec. 02, 2006 Rise Set
Actual Time 7:21 AM EST 5:17 PM EST
Civil Twilight 6:53 AM EST 5:45 PM EST
Nautical Twilight 6:22 AM EST 6:16 PM EST
Astronomical Twilight 5:51 AM EST 6:47 PM EST
Moon 3:19 PM EST (12/2) 4:39 AM EST (12/2)
Length of Visible Light 10h 51m
Length of Day
9h 55m
Waxing Gibbous, 93% of the Moon is Illuminated
Dec 2
Waxing Gibbous
Dec 4
Full
Dec 12
Last Quarter
Dec 20
New
Dec 27
First Quarter

Hourly Weather History & Observations

Time (EST) Temp. Windchill Dew Point Humidity Pressure Visibility Wind Dir Wind Speed Gust Speed Precip Events Conditions
12:54 AM 32.0 °F 21.2 °F 25.0 °F 75% 30.16 in 10.0 mi NNW 16.1 mph - N/A   Clear
1:54 AM 32.0 °F 21.2 °F 24.1 °F 73% 30.16 in 10.0 mi NNW 16.1 mph 20.7 mph N/A   Clear
2:54 AM 30.9 °F 20.7 °F 23.0 °F 72% 30.17 in 10.0 mi North 13.8 mph 20.7 mph N/A   Clear
3:54 AM 30.0 °F 19.1 °F 23.0 °F 75% 30.19 in 10.0 mi North 15.0 mph - N/A   Clear
4:54 AM 30.0 °F 19.1 °F 23.0 °F 75% 30.22 in 10.0 mi North 15.0 mph 23.0 mph N/A   Clear
5:54 AM 30.0 °F 17.5 °F 23.0 °F 75% 30.24 in 10.0 mi North 19.6 mph 25.3 mph N/A   Clear
6:54 AM 30.9 °F 19.8 °F 23.0 °F 72% 30.27 in 10.0 mi NNW 16.1 mph 21.9 mph N/A   Clear
7:54 AM 30.9 °F 22.2 °F 23.0 °F 72% 30.30 in 10.0 mi NNW 10.4 mph - N/A   Clear
8:54 AM 33.1 °F 24.4 °F 24.1 °F 70% 30.32 in 10.0 mi North 11.5 mph - N/A   Clear
9:54 AM 37.9 °F 30.5 °F 24.1 °F 57% 30.35 in 10.0 mi North 11.5 mph - N/A   Clear
10:54 AM 43.0 °F 36.8 °F 21.0 °F 42% 30.33 in 10.0 mi North 11.5 mph - N/A   Clear
11:54 AM 48.9 °F - 16.0 °F 27% 30.31 in 10.0 mi North 9.2 mph - N/A   Clear
12:54 PM 52.0 °F - 12.9 °F 21% 30.30 in 10.0 mi North 11.5 mph - N/A   Clear
1:54 PM 52.0 °F - 14.0 °F 22% 30.28 in 10.0 mi NNW 11.5 mph - N/A   Clear
2:54 PM 55.0 °F - 15.1 °F 21% 30.27 in 10.0 mi NW 9.2 mph - N/A   Clear
3:54 PM 55.0 °F - 14.0 °F 20% 30.28 in 10.0 mi NW 6.9 mph - N/A   Clear
4:54 PM 53.1 °F - 14.0 °F 21% 30.29 in 10.0 mi North 8.1 mph - N/A   Clear
5:54 PM 48.0 °F - 19.9 °F 33% 30.30 in 10.0 mi NW 6.9 mph - N/A   Clear
6:54 PM 46.9 °F - 21.0 °F 36% 30.34 in 10.0 mi Calm Calm - N/A   Clear
7:54 PM 46.0 °F - 24.1 °F 42% 30.35 in 10.0 mi Calm Calm - N/A   Clear
8:54 PM 44.1 °F - 26.1 °F 49% 30.37 in 10.0 mi Calm Calm - N/A   Clear
9:54 PM 42.1 °F - 26.1 °F 53% 30.37 in 10.0 mi Calm Calm - N/A   Clear
10:54 PM 39.9 °F - 28.0 °F 63% 30.36 in 10.0 mi Calm Calm - N/A   Clear
11:54 PM 39.9 °F - 28.9 °F 65% 30.35 in 10.0 mi Calm Calm - N/A   Clear